"Pseudo-MPEC" for P21ZSe7

Created 2024 Oct 3 7:22:18 UT using Find_Orb

Click here for an explanation of pseudo-MPECs

 
 Astrometry: 
     P21ZSe7* C2024 10 01.59797603 54 18.040+26 08 13.17   ~A1G7 22.02wXNEOCPF52
     P21ZSe7  C2024 10 01.60931303 54 15.934+26 07 34.04   ~A1G7 22.39wXNEOCPF52
     P21ZSe7  C2024 10 01.62065603 54 13.833+26 06 54.70   ~A1G7 21.76wXNEOCPF52
     P21ZSe7 KC2024 10 02.31877803 52 21.482+25 26 29.04   ~A28b 21.69GVNEOCPV06
     P21ZSe7 KC2024 10 02.32125803 52 21.050+25 26 20.80   ~A28b 22.08GVNEOCPV06
     P21ZSe7 KC2024 10 02.32373803 52 20.597+25 26 12.19   ~A28b 22.28GVNEOCPV06
     P21ZSe7 KC2024 10 02.32621603 52 20.158+25 26 03.98   ~A28b 22.04GVNEOCPV06
     P21ZSe7  C2024 10 02.52187603 51 46.220+25 14 57.67   ~A2Kq 22.15GVNEOCPF52
     P21ZSe7  C2024 10 02.52271103 51 46.091+25 14 54.53   ~A2Kq 22.79GVNEOCPF52

Station data:
(F52) Pan-STARRS 2, Haleakala  (N20.707382 W156.255910)  US/Hawaii.
   Observers J. Bulger, T. Dukes, T. Lowe, A. Schultz, M. Willman. Measurers
   K. Chambers, S. Chastel, T. de Boer, L. Denneau, J. Fairlamb, H.
   Flewelling, M. Huber, C.-C. Lin, E. Magnier, Y. Ramanjooloo, R. Wainscoat,
   R. Weryk. 1.8-m Ritchey-Chrétien + CCD.
(V06) Catalina Sky Survey-Kuiper  (N32.416871 W110.732550)  US/Arizona.
   Observers T. A. Pruyne, B. M. Africano, E. J. Christensen, G. A. Farneth,
   D. C. Fuls, A. R. Gibbs, A. D. Grauer, H. Gröller, J. A. Johnson, R. A.
   Kowalski, S. M. Larson, G. J. Leonard, D. Rankin, R. L. Seaman, F. C.
   Shelly, K. W. Wierzchoś. 1.55-m reflector + CCD.

Orbital elements:  P21ZSe7
   Perihelion 2024 Jun 21.36010 +/- 1.44 TT =  8:38:32 (JD 2460482.86010)
Epoch 2024 Oct  2.0 TT = JDT 2460585.5   Earth MOID: 0.0722      AutoNEOCP
M  94.33197898 +/- 2.4              (J2000 ecliptic)
n   0.91905759 +/- 0.0106           Peri.   56.58638 +/- 2.0
a   1.04770953 +/- 0.00809          Node   200.99869 +/- 0.06
e   0.2207573 +/- 0.00224           Incl.    9.38946 +/- 0.12
P   1.072/391.698d         H 24.13  G  0.15   U  9.7
q 0.81641992 +/- 0.00603    Q 1.27899915 +/- 0.0108
From 9 observations 2024 Oct. 1-2 (22.2 hr); mean residual 0".12
Residuals in arcseconds: 
241001 F52  .06-  .12-    241002 V06  .21-  .13-    241002 V06  .20+  .06+    
241001 F52  .01-  .03+    241002 V06  .05+  .05+    241002 F52  .20-  .14+    
241001 F52  .07+  .10+    241002 V06  .03+  .15-    241002 F52  .19+  .12-    

Ephemerides (geocentric):
Date (UTC) HH   RA             Dec           delta  r     elong  mag " sig PA
---- --------  ------------   ------------  ------ ------ -----  --- --------
2024 10 03 07  03 49 35.066   +24 29 58.64  .17142 1.1176 129.5 22.2 .466  96
2024 10 03 08  03 49 27.954   +24 27 31.91  .17141 1.1177 129.6 22.2 .483  97
2024 10 03 09  03 49 20.836   +24 25 05.10  .17139 1.1178 129.7 22.2 .501  97
2024 10 03 10  03 49 13.711   +24 22 38.20  .17138 1.1180 129.8 22.2 .518  97
2024 10 03 11  03 49 06.580   +24 20 11.23  .17136 1.1181 129.9 22.2 .536  97
2024 10 03 12  03 48 59.443   +24 17 44.16  .17135 1.1182 129.9 22.2 .554  98
2024 10 03 13  03 48 52.299   +24 15 17.02  .17134 1.1184 130.0 22.2 .572  98
2024 10 03 14  03 48 45.150   +24 12 49.79  .17132 1.1185 130.1 22.2 .590  98
2024 10 03 15  03 48 37.994   +24 10 22.48  .17131 1.1187 130.2 22.2 .608  98
2024 10 03 16  03 48 30.832   +24 07 55.08  .17129 1.1188 130.2 22.2 .627  98
2024 10 03 17  03 48 23.664   +24 05 27.61  .17128 1.1189 130.3 22.2 .645  99
2024 10 03 18  03 48 16.489   +24 03 00.05  .17127 1.1191 130.4 22.2 .664  99
2024 10 03 19  03 48 09.309   +24 00 32.41  .17125 1.1192 130.5 22.2 .683  99
2024 10 03 20  03 48 02.122   +23 58 04.69  .17124 1.1193 130.6 22.2 .702  99
2024 10 03 21  03 47 54.930   +23 55 36.89  .17123 1.1195 130.6 22.2 .721  99
2024 10 03 22  03 47 47.731   +23 53 09.00  .17121 1.1196 130.7 22.2 .741  99
2024 10 03 23  03 47 40.527   +23 50 41.04  .17120 1.1198 130.8 22.2 .760 100
2024 10 04 00  03 47 33.316   +23 48 13.00  .17119 1.1199 130.9 22.2 .780 100
2024 10 04 01  03 47 26.099   +23 45 44.88  .17118 1.1200 131.0 22.2 .800 100
2024 10 04 02  03 47 18.876   +23 43 16.68  .17116 1.1202 131.0 22.2 .820 100
2024 10 04 03  03 47 11.647   +23 40 48.40  .17115 1.1203 131.1 22.2 .840 100
2024 10 04 04  03 47 04.413   +23 38 20.04  .17114 1.1204 131.2 22.2 .860 100
2024 10 04 05  03 46 57.172   +23 35 51.60  .17113 1.1206 131.3 22.2 .880 100
2024 10 04 06  03 46 49.925   +23 33 23.08  .17112 1.1207 131.3 22.2 .901 101
2024 10 04 07  03 46 42.672   +23 30 54.49  .17110 1.1209 131.4 22.2 .922 101
2024 10 04 08  03 46 35.414   +23 28 25.82  .17109 1.1210 131.5 22.2 .942 101
2024 10 04 09  03 46 28.149   +23 25 57.07  .17108 1.1211 131.6 22.2 .963 101
2024 10 04 10  03 46 20.879   +23 23 28.24  .17107 1.1213 131.7 22.2 .985 101
2024 10 04 11  03 46 13.603   +23 20 59.34  .17106 1.1214 131.7 22.2 1.01 101
2024 10 04 12  03 46 06.320   +23 18 30.36  .17105 1.1215 131.8 22.2 1.03 101
2024 10 04 13  03 45 59.032   +23 16 01.30  .17104 1.1217 131.9 22.2 1.05 102
2024 10 04 14  03 45 51.739   +23 13 32.17  .17103 1.1218 132.0 22.2 1.07 102
2024 10 04 15  03 45 44.439   +23 11 02.97  .17102 1.1220 132.1 22.2 1.09 102
2024 10 04 16  03 45 37.134   +23 08 33.69  .17101 1.1221 132.1 22.2 1.11 102
2024 10 04 17  03 45 29.822   +23 06 04.33  .17100 1.1222 132.2 22.2 1.14 102
2024 10 04 18  03 45 22.505   +23 03 34.90  .17099 1.1224 132.3 22.2 1.16 102
2024 10 04 19  03 45 15.183   +23 01 05.40  .17098 1.1225 132.4 22.2 1.18 102
2024 10 04 20  03 45 07.854   +22 58 35.82  .17097 1.1226 132.5 22.2 1.20 102
2024 10 04 21  03 45 00.520   +22 56 06.17  .17096 1.1228 132.5 22.2 1.23 102
2024 10 04 22  03 44 53.180   +22 53 36.44  .17095 1.1229 132.6 22.2 1.25 103
2024 10 04 23  03 44 45.835   +22 51 06.64  .17094 1.1230 132.7 22.2 1.27 103
2024 10 05 00  03 44 38.484   +22 48 36.78  .17094 1.1232 132.8 22.2 1.30 103
2024 10 05 01  03 44 31.127   +22 46 06.83  .17093 1.1233 132.8 22.1 1.32 103
2024 10 05 02  03 44 23.764   +22 43 36.82  .17092 1.1235 132.9 22.1 1.34 103
2024 10 05 03  03 44 16.396   +22 41 06.74  .17091 1.1236 133.0 22.1 1.37 103
2024 10 05 04  03 44 09.023   +22 38 36.58  .17090 1.1237 133.1 22.1 1.39 103
2024 10 05 05  03 44 01.643   +22 36 06.35  .17090 1.1239 133.2 22.1 1.42 103
2024 10 05 06  03 43 54.259   +22 33 36.06  .17089 1.1240 133.2 22.1 1.44 103